Time,TemperatureF,DewpointF,PressureIn,WindDirection,WindDirectionDegrees,WindSpeedMPH,WindSpeedGustMPH,Humidity,HourlyPrecipIn,Conditions,Clouds,dailyrainin,SoftwareType,DateUTC
2013-06-10 00:00:00,88.0,22.1,29.58,NW,304,1.0,1.0,9,0.00,,,0.00,Wunderground v.1.15,2013-06-10 07:00:00,
2013-06-10 00:05:00,86.7,23.6,29.58,SSE,149,0.0,1.0,10,0.00,,,0.00,Wunderground v.1.15,2013-06-10 07:05:00,
2013-06-10 00:10:00,85.6,22.8,29.58,NNW,348,0.0,0.0,10,0.00,,,0.00,Wunderground v.1.15,2013-06-10 07:10:00,
2013-06-10 00:15:00,84.9,22.2,29.58,NW,306,0.0,0.0,10,0.00,,,0.00,Wunderground v.1.15,2013-06-10 07:15:00,
2013-06-10 00:20:00,84.5,21.9,29.58,North,350,0.0,0.0,10,0.00,,,0.00,Wunderground v.1.15,2013-06-10 07:20:00,
2013-06-10 00:30:00,85.0,22.3,29.58,WSW,243,0.0,2.0,10,0.00,,,0.00,Wunderground v.1.15,2013-06-10 07:30:00,
2013-06-10 00:35:00,84.8,22.2,29.58,WSW,250,0.0,2.0,10,0.00,,,0.00,Wunderground v.1.15,2013-06-10 07:35:00,
2013-06-10 00:40:00,84.2,21.7,29.58,North,353,0.0,1.0,10,0.00,,,0.00,Wunderground v.1.15,2013-06-10 07:40:00,
2013-06-10 00:45:00,84.3,21.8,29.58,North,352,1.0,1.0,10,0.00,,,0.00,Wunderground v.1.15,2013-06-10 07:45:00,
2013-06-10 00:50:00,84.2,21.7,29.58,NNW,335,1.0,2.0,10,0.00,,,0.00,Wunderground v.1.15,2013-06-10 07:50:00,
2013-06-10 01:00:00,83.7,21.3,29.58,NW,318,2.0,3.0,10,0.00,,,0.00,Wunderground v.1.15,2013-06-10 08:00:00,
2013-06-10 01:05:00,83.9,21.5,29.58,NW,314,3.0,3.0,10,0.00,,,0.00,Wunderground v.1.15,2013-06-10 08:05:00,
2013-06-10 01:10:00,83.7,21.3,29.57,NW,323,3.0,3.0,10,0.00,,,0.00,Wunderground v.1.15,2013-06-10 08:10:00,
2013-06-10 01:15:00,82.7,22.8,29.58,NNW,330,2.0,4.0,11,0.00,,,0.00,Wunderground v.1.15,2013-06-10 08:15:00,
2013-06-10 01:20:00,82.8,22.9,29.57,WNW,301,2.0,3.0,11,0.00,,,0.00,Wunderground v.1.15,2013-06-10 08:20:00,
2013-06-10 01:30:00,83.1,23.1,29.57,NW,313,2.0,2.0,11,0.00,,,0.00,Wunderground v.1.15,2013-06-10 08:30:00,
2013-06-10 01:35:00,83.2,23.2,29.57,NNW,330,3.0,4.0,11,0.00,,,0.00,Wunderground v.1.15,2013-06-10 08:35:00,
2013-06-10 01:40:00,83.2,23.2,29.57,NW,319,3.0,3.0,11,0.00,,,0.00,Wunderground v.1.15,2013-06-10 08:40:00,
2013-06-10 01:45:00,83.3,25.4,29.57,NW,326,3.0,4.0,12,0.00,,,0.00,Wunderground v.1.15,2013-06-10 08:45:00,
2013-06-10 01:55:00,84.6,26.4,29.57,NW,304,4.0,4.0,12,0.00,,,0.00,Wunderground v.1.15,2013-06-10 08:55:00,
2013-06-10 02:00:00,85.4,24.9,29.57,WNW,282,3.0,3.0,11,0.00,,,0.00,Wunderground v.1.15,2013-06-10 09:00:00,
2013-06-10 02:05:00,85.5,27.1,29.57,West,281,3.0,3.0,12,0.00,,,0.00,Wunderground v.1.15,2013-06-10 09:05:00,
2013-06-10 02:10:00,85.0,26.7,29.57,WNW,290,4.0,4.0,12,0.00,,,0.00,Wunderground v.1.15,2013-06-10 09:10:00,
2013-06-10 02:15:00,84.9,26.6,29.57,WNW,298,4.0,7.0,12,0.00,,,0.00,Wunderground v.1.15,2013-06-10 09:15:00,
2013-06-10 02:25:00,84.4,28.2,29.57,NW,304,6.0,6.0,13,0.00,,,0.00,Wunderground v.1.15,2013-06-10 09:25:00,
2013-06-10 02:35:00,84.5,30.1,29.57,NW,306,5.0,6.0,14,0.00,,,0.00,Wunderground v.1.15,2013-06-10 09:35:00,
2013-06-10 02:40:00,84.0,31.4,29.57,WNW,301,6.0,6.0,15,0.00,,,0.00,Wunderground v.1.15,2013-06-10 09:40:00,
2013-06-10 02:45:00,83.8,32.8,29.57,WNW,301,6.0,6.0,16,0.00,,,0.00,Wunderground v.1.15,2013-06-10 09:45:00,
2013-06-10 02:50:00,84.1,34.6,29.57,WNW,300,6.0,7.0,17,0.00,,,0.00,Wunderground v.1.15,2013-06-10 09:50:00,
2013-06-10 03:00:00,82.8,33.5,29.57,NW,309,5.0,5.0,17,0.00,,,0.00,Wunderground v.1.15,2013-06-10 10:00:00,
2013-06-10 03:05:00,82.0,32.9,29.57,NW,315,5.0,5.0,17,0.00,,,0.00,Wunderground v.1.15,2013-06-10 10:05:00,
2013-06-10 03:10:00,81.8,32.7,29.57,NNW,339,4.0,4.0,17,0.00,,,0.00,Wunderground v.1.15,2013-06-10 10:10:00,
2013-06-10 03:15:00,81.4,32.4,29.57,NW,321,4.0,4.0,17,0.00,,,0.00,Wunderground v.1.15,2013-06-10 10:15:00,
2013-06-10 03:20:00,80.8,31.9,29.57,NW,320,3.0,3.0,17,0.00,,,0.00,Wunderground v.1.15,2013-06-10 10:20:00,
2013-06-10 03:30:00,81.3,30.8,29.57,NNW,337,2.0,3.0,16,0.00,,,0.00,Wunderground v.1.15,2013-06-10 10:30:00,
2013-06-10 03:35:00,81.6,31.0,29.57,NW,318,2.0,3.0,16,0.00,,,0.00,Wunderground v.1.15,2013-06-10 10:35:00,
2013-06-10 03:45:00,81.4,29.3,29.57,NNW,329,3.0,6.0,15,0.00,,,0.00,Wunderground v.1.15,2013-06-10 10:45:00,
2013-06-10 03:50:00,80.9,28.9,29.57,NW,321,3.0,3.0,15,0.00,,,0.00,Wunderground v.1.15,2013-06-10 10:50:00,
2013-06-10 04:00:00,81.8,27.9,29.58,NNW,340,3.0,3.0,14,0.00,,,0.00,Wunderground v.1.15,2013-06-10 11:00:00,
2013-06-10 04:05:00,81.2,29.1,29.58,NNW,345,2.0,3.0,15,0.00,,,0.00,Wunderground v.1.15,2013-06-10 11:05:00,
2013-06-10 04:10:00,81.3,29.2,29.58,NNW,332,3.0,3.0,15,0.00,,,0.00,Wunderground v.1.15,2013-06-10 11:10:00,
2013-06-10 04:20:00,81.7,29.5,29.58,NW,326,2.0,2.0,15,0.00,,,0.00,Wunderground v.1.15,2013-06-10 11:20:00,
2013-06-10 04:30:00,80.5,28.6,29.58,NW,317,2.0,2.0,15,0.00,,,0.00,Wunderground v.1.15,2013-06-10 11:30:00,
2013-06-10 04:35:00,80.6,28.7,29.58,NNW,332,2.0,2.0,15,0.00,,,0.00,Wunderground v.1.15,2013-06-10 11:35:00,
2013-06-10 04:40:00,80.7,28.7,29.58,NW,316,2.0,2.0,15,0.00,,,0.00,Wunderground v.1.15,2013-06-10 11:40:00,
2013-06-10 04:50:00,80.8,30.4,29.59,WNW,283,0.0,1.0,16,0.00,,,0.00,Wunderground v.1.15,2013-06-10 11:50:00,
2013-06-10 04:55:00,80.4,30.1,29.59,WSW,254,0.0,1.0,16,0.00,,,0.00,Wunderground v.1.15,2013-06-10 11:55:00,
2013-06-10 05:00:00,79.7,29.5,29.59,WNW,298,1.0,3.0,16,0.00,,,0.00,Wunderground v.1.15,2013-06-10 12:00:00,
2013-06-10 05:05:00,79.7,31.0,29.59,WNW,301,3.0,5.0,17,0.00,,,0.00,Wunderground v.1.15,2013-06-10 12:05:00,
2013-06-10 05:10:00,79.8,29.6,29.60,WNW,301,5.0,6.0,16,0.00,,,0.00,Wunderground v.1.15,2013-06-10 12:10:00,
2013-06-10 05:25:00,80.6,31.7,29.60,NW,304,5.0,6.0,17,0.00,,,0.00,Wunderground v.1.15,2013-06-10 12:25:00,
2013-06-10 05:35:00,81.1,32.1,29.60,WNW,287,3.0,4.0,17,0.00,,,0.00,Wunderground v.1.15,2013-06-10 12:35:00,
2013-06-10 05:40:00,81.2,32.2,29.60,WSW,256,2.0,3.0,17,0.00,,,0.00,Wunderground v.1.15,2013-06-10 12:40:00,
2013-06-10 05:45:00,81.6,32.5,29.60,SW,221,3.0,3.0,17,0.00,,,0.00,Wunderground v.1.15,2013-06-10 12:45:00,
2013-06-10 05:50:00,81.5,31.0,29.60,WNW,282,2.0,2.0,16,0.00,,,0.00,Wunderground v.1.15,2013-06-10 12:50:00,
2013-06-10 06:00:00,81.6,32.5,29.61,East,101,1.0,1.0,17,0.00,,,0.00,Wunderground v.1.15,2013-06-10 13:00:00,
2013-06-10 06:05:00,82.0,31.4,29.61,East,100,0.0,1.0,16,0.00,,,0.00,Wunderground v.1.15,2013-06-10 13:05:00,
2013-06-10 06:10:00,82.3,33.1,29.61,East,100,0.0,0.0,17,0.00,,,0.00,Wunderground v.1.15,2013-06-10 13:10:00,
2013-06-10 06:15:00,82.7,33.4,29.62,East,101,0.0,0.0,17,0.00,,,0.00,Wunderground v.1.15,2013-06-10 13:15:00,
2013-06-10 06:20:00,83.0,32.2,29.62,East,97,0.0,0.0,16,0.00,,,0.00,Wunderground v.1.15,2013-06-10 13:20:00,
2013-06-10 06:30:00,83.9,32.9,29.62,East,97,0.0,0.0,16,0.00,,,0.00,Wunderground v.1.15,2013-06-10 13:30:00,
2013-06-10 06:35:00,84.4,33.3,29.61,East,97,0.0,1.0,16,0.00,,,0.00,Wunderground v.1.15,2013-06-10 13:35:00,
2013-06-10 06:40:00,84.1,33.0,29.62,East,98,0.0,0.0,16,0.00,,,0.00,Wunderground v.1.15,2013-06-10 13:40:00,
2013-06-10 06:45:00,84.2,31.5,29.62,East,97,0.0,0.0,15,0.00,,,0.00,Wunderground v.1.15,2013-06-10 13:45:00,
2013-06-10 06:50:00,84.6,31.8,29.62,NE,37,0.0,0.0,15,0.00,,,0.00,Wunderground v.1.15,2013-06-10 13:50:00,
2013-06-10 07:00:00,85.4,32.5,29.62,East,98,1.0,2.0,15,0.00,,,0.00,Wunderground v.1.15,2013-06-10 14:00:00,
2013-06-10 07:05:00,85.9,32.9,29.62,East,82,1.0,2.0,15,0.00,,,0.00,Wunderground v.1.15,2013-06-10 14:05:00,
2013-06-10 07:10:00,86.9,32.0,29.62,ESE,117,0.0,0.0,14,0.00,,,0.00,Wunderground v.1.15,2013-06-10 14:10:00,
2013-06-10 07:15:00,87.9,32.7,29.62,ESE,118,0.0,1.0,14,0.00,,,0.00,Wunderground v.1.15,2013-06-10 14:15:00,
2013-06-10 07:25:00,88.1,32.9,29.63,SE,127,1.0,1.0,14,0.00,,,0.00,Wunderground v.1.15,2013-06-10 14:25:00,
2013-06-10 07:35:00,88.6,33.3,29.63,SW,219,1.0,4.0,14,0.00,,,0.00,Wunderground v.1.15,2013-06-10 14:35:00,
2013-06-10 07:40:00,88.5,33.2,29.63,SW,235,1.0,1.0,14,0.00,,,0.00,Wunderground v.1.15,2013-06-10 14:40:00,
2013-06-10 07:45:00,88.2,33.0,29.63,SSE,166,2.0,2.0,14,0.00,,,0.00,Wunderground v.1.15,2013-06-10 14:45:00,
2013-06-10 07:50:00,88.6,31.4,29.63,SE,138,2.0,3.0,13,0.00,,,0.00,Wunderground v.1.15,2013-06-10 14:50:00,
2013-06-10 08:00:00,88.8,31.6,29.63,SSW,194,3.0,5.0,13,0.00,,,0.00,Wunderground v.1.15,2013-06-10 15:00:00,
2013-06-10 08:05:00,88.9,31.7,29.63,SSE,160,3.0,5.0,13,0.00,,,0.00,Wunderground v.1.15,2013-06-10 15:05:00,
2013-06-10 08:10:00,89.1,31.8,29.63,South,179,3.0,3.0,13,0.00,,,0.00,Wunderground v.1.15,2013-06-10 15:10:00,
2013-06-10 08:15:00,89.8,32.4,29.63,SE,144,3.0,5.0,13,0.00,,,0.00,Wunderground v.1.15,2013-06-10 15:15:00,
2013-06-10 08:25:00,89.8,32.4,29.64,SSE,163,5.0,6.0,13,0.00,,,0.00,Wunderground v.1.15,2013-06-10 15:25:00,
2013-06-10 08:35:00,89.9,32.5,29.64,SW,224,4.0,5.0,13,0.00,,,0.00,Wunderground v.1.15,2013-06-10 15:35:00,
2013-06-10 08:40:00,89.9,32.5,29.64,WSW,245,5.0,5.0,13,0.00,,,0.00,Wunderground v.1.15,2013-06-10 15:40:00,
2013-06-10 08:50:00,89.9,32.5,29.64,South,179,3.0,5.0,13,0.00,,,0.00,Wunderground v.1.15,2013-06-10 15:50:00,
2013-06-10 08:55:00,90.4,32.9,29.64,West,260,4.0,5.0,13,0.00,,,0.00,Wunderground v.1.15,2013-06-10 15:55:00,
2013-06-10 09:00:00,90.6,33.0,29.64,SSW,201,4.0,5.0,13,0.00,,,0.00,Wunderground v.1.15,2013-06-10 16:00:00,
2013-06-10 09:05:00,91.1,33.4,29.63,SW,219,3.0,5.0,13,0.00,,,0.00,Wunderground v.1.15,2013-06-10 16:05:00,
2013-06-10 09:10:00,91.0,33.3,29.63,SW,219,3.0,5.0,13,0.00,,,0.00,Wunderground v.1.15,2013-06-10 16:10:00,
2013-06-10 09:20:00,91.6,33.8,29.63,SSW,193,3.0,3.0,13,0.00,,,0.00,Wunderground v.1.15,2013-06-10 16:20:00,
2013-06-10 09:25:00,91.9,32.0,29.63,WSW,250,3.0,3.0,12,0.00,,,0.00,Wunderground v.1.15,2013-06-10 16:25:00,
2013-06-10 09:30:00,92.0,32.1,29.63,SW,222,3.0,3.0,12,0.00,,,0.00,Wunderground v.1.15,2013-06-10 16:30:00,
2013-06-10 09:35:00,92.8,30.6,29.63,NW,304,2.0,3.0,11,0.00,,,0.00,Wunderground v.1.15,2013-06-10 16:35:00,
2013-06-10 09:40:00,94.0,31.5,29.62,South,170,3.0,5.0,11,0.00,,,0.00,Wunderground v.1.15,2013-06-10 16:40:00,
2013-06-10 09:50:00,94.2,31.6,29.62,SSW,198,5.0,5.0,11,0.00,,,0.00,Wunderground v.1.15,2013-06-10 16:50:00,
2013-06-10 09:55:00,94.7,32.0,29.62,SW,214,4.0,5.0,11,0.00,,,0.00,Wunderground v.1.15,2013-06-10 16:55:00,
2013-06-10 10:00:00,95.2,30.0,29.62,SSE,163,4.0,5.0,10,0.00,,,0.00,Wunderground v.1.15,2013-06-10 17:00:00,
2013-06-10 10:05:00,95.0,29.9,29.62,SSW,203,4.0,5.0,10,0.00,,,0.00,Wunderground v.1.15,2013-06-10 17:05:00,
2013-06-10 10:10:00,95.3,30.1,29.62,SW,214,5.0,5.0,10,0.00,,,0.00,Wunderground v.1.15,2013-06-10 17:10:00,
2013-06-10 10:20:00,96.2,30.8,29.62,West,278,4.0,4.0,10,0.00,,,0.00,Wunderground v.1.15,2013-06-10 17:20:00,
2013-06-10 10:25:00,95.7,30.4,29.62,SSE,149,3.0,4.0,10,0.00,,,0.00,Wunderground v.1.15,2013-06-10 17:25:00,
2013-06-10 10:30:00,96.2,30.8,29.62,SSW,211,4.0,5.0,10,0.00,,,0.00,Wunderground v.1.15,2013-06-10 17:30:00,
2013-06-10 10:35:00,96.5,28.4,29.62,SE,143,4.0,5.0,9,0.00,,,0.00,Wunderground v.1.15,2013-06-10 17:35:00,
2013-06-10 10:40:00,96.8,28.7,29.62,SSW,211,4.0,5.0,9,0.00,,,0.00,Wunderground v.1.15,2013-06-10 17:40:00,
2013-06-10 10:50:00,97.0,28.8,29.62,South,174,5.0,8.0,9,0.00,,,0.00,Wunderground v.1.15,2013-06-10 17:50:00,
2013-06-10 10:55:00,97.2,29.0,29.62,South,170,5.0,8.0,9,0.00,,,0.00,Wunderground v.1.15,2013-06-10 17:55:00,
2013-06-10 11:00:00,97.2,29.0,29.62,SSW,200,5.0,6.0,9,0.00,,,0.00,Wunderground v.1.15,2013-06-10 18:00:00,
2013-06-10 11:05:00,97.5,26.3,29.61,SW,228,4.0,6.0,8,0.00,,,0.00,Wunderground v.1.15,2013-06-10 18:05:00,
2013-06-10 11:10:00,96.9,25.9,29.61,SW,224,5.0,5.0,8,0.00,,,0.00,Wunderground v.1.15,2013-06-10 18:10:00,
2013-06-10 11:20:00,96.9,25.9,29.61,WSW,238,5.0,10.0,8,0.00,,,0.00,Wunderground v.1.15,2013-06-10 18:20:00,
2013-06-10 11:25:00,96.2,25.4,29.61,SSE,153,5.0,10.0,8,0.00,,,0.00,Wunderground v.1.15,2013-06-10 18:25:00,
2013-06-10 11:30:00,96.8,25.8,29.61,West,260,4.0,4.0,8,0.00,,,0.00,Wunderground v.1.15,2013-06-10 18:30:00,
2013-06-10 11:35:00,98.0,26.7,29.61,South,188,2.0,4.0,8,0.00,,,0.00,Wunderground v.1.15,2013-06-10 18:35:00,
2013-06-10 11:45:00,97.5,29.2,29.61,West,276,4.0,6.0,9,0.00,,,0.00,Wunderground v.1.15,2013-06-10 18:45:00,
2013-06-10 11:50:00,98.4,29.9,29.61,SW,236,2.0,3.0,9,0.00,,,0.00,Wunderground v.1.15,2013-06-10 18:50:00,
2013-06-10 11:55:00,97.9,29.5,29.61,SW,229,5.0,5.0,9,0.00,,,0.00,Wunderground v.1.15,2013-06-10 18:55:00,
2013-06-10 12:05:00,97.1,31.5,29.61,WSW,245,7.0,7.0,10,0.00,,,0.00,Wunderground v.1.15,2013-06-10 19:05:00,
2013-06-10 12:10:00,97.5,31.8,29.61,SSW,200,6.0,6.0,10,0.00,,,0.00,Wunderground v.1.15,2013-06-10 19:10:00,
2013-06-10 12:15:00,98.2,32.3,29.60,WSW,255,5.0,6.0,10,0.00,,,0.00,Wunderground v.1.15,2013-06-10 19:15:00,
2013-06-10 12:20:00,98.7,32.7,29.60,West,267,5.0,5.0,10,0.00,,,0.00,Wunderground v.1.15,2013-06-10 19:20:00,
2013-06-10 12:30:00,98.6,32.6,29.60,SSW,200,8.0,8.0,10,0.00,,,0.00,Wunderground v.1.15,2013-06-10 19:30:00,
2013-06-10 12:35:00,98.6,32.6,29.60,SW,229,7.0,8.0,10,0.00,,,0.00,Wunderground v.1.15,2013-06-10 19:35:00,
2013-06-10 12:40:00,98.5,32.5,29.60,SSW,203,7.0,7.0,10,0.00,,,0.00,Wunderground v.1.15,2013-06-10 19:40:00,
2013-06-10 12:45:00,98.6,30.0,29.60,SSE,165,8.0,8.0,9,0.00,,,0.00,Wunderground v.1.15,2013-06-10 19:45:00,
2013-06-10 12:50:00,99.0,32.9,29.60,South,181,8.0,8.0,10,0.00,,,0.00,Wunderground v.1.15,2013-06-10 19:50:00,
2013-06-10 13:00:00,98.4,29.9,29.59,West,262,8.0,8.0,9,0.00,,,0.00,Wunderground v.1.15,2013-06-10 20:00:00,
2013-06-10 13:05:00,98.4,29.9,29.60,SE,141,6.0,8.0,9,0.00,,,0.00,Wunderground v.1.15,2013-06-10 20:05:00,
2013-06-10 13:10:00,99.5,30.7,29.59,SSW,209,6.0,6.0,9,0.00,,,0.00,Wunderground v.1.15,2013-06-10 20:10:00,
2013-06-10 13:20:00,99.4,27.7,29.59,WSW,253,7.0,7.0,8,0.00,,,0.00,Wunderground v.1.15,2013-06-10 20:20:00,
2013-06-10 13:30:00,99.9,28.1,29.58,SSW,194,6.0,14.0,8,0.00,,,0.00,Wunderground v.1.15,2013-06-10 20:30:00,
2013-06-10 13:35:00,99.5,24.6,29.58,West,270,6.0,14.0,7,0.00,,,0.00,Wunderground v.1.15,2013-06-10 20:35:00,
2013-06-10 13:40:00,100.0,24.9,29.58,SSW,201,7.0,8.0,7,0.00,,,0.00,Wunderground v.1.15,2013-06-10 20:40:00,
2013-06-10 13:50:00,100.5,25.3,29.57,ENE,70,6.0,6.0,7,0.00,,,0.00,Wunderground v.1.15,2013-06-10 20:50:00,
2013-06-10 13:55:00,100.5,25.3,29.57,SSW,193,5.0,6.0,7,0.00,,,0.00,Wunderground v.1.15,2013-06-10 20:55:00,
2013-06-10 14:00:00,100.9,21.9,29.57,West,274,5.0,5.0,6,0.00,,,0.00,Wunderground v.1.15,2013-06-10 21:00:00,
2013-06-10 14:05:00,100.8,21.8,29.57,WSW,240,4.0,8.0,6,0.00,,,0.00,Wunderground v.1.15,2013-06-10 21:05:00,
2013-06-10 14:10:00,100.6,17.4,29.56,West,266,7.0,7.0,5,0.00,,,0.00,Wunderground v.1.15,2013-06-10 21:10:00,
2013-06-10 14:20:00,99.9,16.9,29.56,SW,222,9.0,9.0,5,0.00,,,0.00,Wunderground v.1.15,2013-06-10 21:20:00,
2013-06-10 14:25:00,100.0,17.0,29.56,SW,233,9.0,9.0,5,0.00,,,0.00,Wunderground v.1.15,2013-06-10 21:25:00,
2013-06-10 14:35:00,100.4,17.3,29.56,WSW,255,8.0,13.0,5,0.00,,,0.00,Wunderground v.1.15,2013-06-10 21:35:00,
2013-06-10 14:45:00,101.5,18.0,29.55,SSE,160,7.0,8.0,5,0.00,,,0.00,Wunderground v.1.15,2013-06-10 21:45:00,
2013-06-10 14:50:00,101.6,18.1,29.55,SW,232,6.0,6.0,5,0.00,,,0.00,Wunderground v.1.15,2013-06-10 21:50:00,
2013-06-10 14:55:00,100.7,17.5,29.55,SW,214,8.0,8.0,5,0.00,,,0.00,Wunderground v.1.15,2013-06-10 21:55:00,
2013-06-10 15:05:00,101.2,17.8,29.55,SW,217,5.0,7.0,5,0.00,,,0.00,Wunderground v.1.15,2013-06-10 22:05:00,
2013-06-10 15:10:00,101.6,13.0,29.55,WSW,246,5.0,8.0,4,0.00,,,0.00,Wunderground v.1.15,2013-06-10 22:10:00,
2013-06-10 15:15:00,101.0,12.6,29.54,SSW,211,8.0,8.0,4,0.00,,,0.00,Wunderground v.1.15,2013-06-10 22:15:00,
2013-06-10 15:20:00,101.1,12.6,29.54,WSW,248,7.0,8.0,4,0.00,,,0.00,Wunderground v.1.15,2013-06-10 22:20:00,
2013-06-10 15:30:00,101.5,12.9,29.53,SW,231,5.0,5.0,4,0.00,,,0.00,Wunderground v.1.15,2013-06-10 22:30:00,
2013-06-10 15:35:00,102.8,13.8,29.53,West,269,2.0,5.0,4,0.00,,,0.00,Wunderground v.1.15,2013-06-10 22:35:00,
2013-06-10 15:40:00,102.5,13.6,29.53,SW,226,4.0,11.0,4,0.00,,,0.00,Wunderground v.1.15,2013-06-10 22:40:00,
2013-06-10 15:45:00,101.0,12.6,29.53,WSW,241,9.0,11.0,4,0.00,,,0.00,Wunderground v.1.15,2013-06-10 22:45:00,
2013-06-10 15:50:00,101.0,12.6,29.53,WSW,255,11.0,12.0,4,0.00,,,0.00,Wunderground v.1.15,2013-06-10 22:50:00,
2013-06-10 16:00:00,101.4,12.8,29.53,WSW,239,6.0,6.0,4,0.00,,,0.00,Wunderground v.1.15,2013-06-10 23:00:00,
2013-06-10 16:05:00,101.8,13.1,29.52,SW,234,6.0,6.0,4,0.00,,,0.00,Wunderground v.1.15,2013-06-10 23:05:00,
2013-06-10 16:10:00,101.2,12.7,29.52,WNW,289,7.0,8.0,4,0.00,,,0.00,Wunderground v.1.15,2013-06-10 23:10:00,
2013-06-10 16:20:00,101.0,12.6,29.52,SW,217,9.0,9.0,4,0.00,,,0.00,Wunderground v.1.15,2013-06-10 23:20:00,
2013-06-10 16:30:00,102.0,13.2,29.52,SSW,198,4.0,4.0,4,0.00,,,0.00,Wunderground v.1.15,2013-06-10 23:30:00,
2013-06-10 16:35:00,102.4,13.5,29.51,SW,233,4.0,6.0,4,0.00,,,0.00,Wunderground v.1.15,2013-06-10 23:35:00,
2013-06-10 16:40:00,101.8,18.2,29.52,SW,221,6.0,8.0,5,0.00,,,0.00,Wunderground v.1.15,2013-06-10 23:40:00,
2013-06-10 16:50:00,100.6,17.4,29.51,SW,228,9.0,9.0,5,0.00,,,0.00,Wunderground v.1.15,2013-06-10 23:50:00,
2013-06-10 16:55:00,100.6,17.4,29.51,West,277,9.0,11.0,5,0.00,,,0.00,Wunderground v.1.15,2013-06-10 23:55:00,
2013-06-10 17:00:00,100.0,17.0,29.51,WSW,257,9.0,9.0,5,0.00,,,0.00,Wunderground v.1.15,2013-06-11 00:00:00,
2013-06-10 17:05:00,100.3,17.2,29.51,WSW,246,8.0,10.0,5,0.00,,,0.00,Wunderground v.1.15,2013-06-11 00:05:00,
2013-06-10 17:15:00,100.4,17.3,29.51,WSW,240,7.0,8.0,5,0.00,,,0.00,Wunderground v.1.15,2013-06-11 00:15:00,
2013-06-10 17:20:00,100.5,17.3,29.51,SW,233,7.0,11.0,5,0.00,,,0.00,Wunderground v.1.15,2013-06-11 00:20:00,
2013-06-10 17:25:00,100.1,17.1,29.51,WSW,252,9.0,12.0,5,0.00,,,0.00,Wunderground v.1.15,2013-06-11 00:25:00,
2013-06-10 17:35:00,100.2,17.1,29.50,WSW,246,7.0,13.0,5,0.00,,,0.00,Wunderground v.1.15,2013-06-11 00:35:00,
2013-06-10 17:40:00,100.0,17.0,29.50,SW,219,9.0,10.0,5,0.00,,,0.00,Wunderground v.1.15,2013-06-11 00:40:00,
2013-06-10 17:45:00,99.6,16.7,29.50,West,260,10.0,10.0,5,0.00,,,0.00,Wunderground v.1.15,2013-06-11 00:45:00,
2013-06-10 17:50:00,99.6,16.7,29.50,WSW,249,9.0,9.0,5,0.00,,,0.00,Wunderground v.1.15,2013-06-11 00:50:00,
2013-06-10 17:55:00,99.6,16.7,29.50,WSW,243,8.0,14.0,5,0.00,,,0.00,Wunderground v.1.15,2013-06-11 00:55:00,
2013-06-10 18:05:00,99.3,16.5,29.50,SW,235,9.0,14.0,5,0.00,,,0.00,Wunderground v.1.15,2013-06-11 01:05:00,
2013-06-10 18:10:00,99.2,16.4,29.50,WNW,282,8.0,9.0,5,0.00,,,0.00,Wunderground v.1.15,2013-06-11 01:10:00,
2013-06-10 18:15:00,99.0,16.3,29.50,SSW,211,9.0,9.0,5,0.00,,,0.00,Wunderground v.1.15,2013-06-11 01:15:00,
2013-06-10 18:20:00,98.4,15.9,29.50,WSW,239,7.0,7.0,5,0.00,,,0.00,Wunderground v.1.15,2013-06-11 01:20:00,
2013-06-10 18:25:00,98.1,19.9,29.50,WSW,247,9.0,9.0,6,0.00,,,0.00,Wunderground v.1.15,2013-06-11 01:25:00,
2013-06-10 18:30:00,97.9,19.8,29.50,NW,312,10.0,10.0,6,0.00,,,0.00,Wunderground v.1.15,2013-06-11 01:30:00,
2013-06-10 18:40:00,97.6,19.5,29.51,WNW,288,6.0,6.0,6,0.00,,,0.00,Wunderground v.1.15,2013-06-11 01:40:00,
2013-06-10 18:45:00,97.5,19.5,29.51,SW,233,6.0,10.0,6,0.00,,,0.00,Wunderground v.1.15,2013-06-11 01:45:00,
2013-06-10 18:50:00,97.3,19.3,29.51,SW,226,6.0,6.0,6,0.00,,,0.00,Wunderground v.1.15,2013-06-11 01:50:00,
2013-06-10 18:55:00,97.1,22.8,29.51,WSW,255,7.0,8.0,7,0.00,,,0.00,Wunderground v.1.15,2013-06-11 01:55:00,
2013-06-10 19:05:00,97.0,22.7,29.51,WSW,255,9.0,9.0,7,0.00,,,0.00,Wunderground v.1.15,2013-06-11 02:05:00,
2013-06-10 19:10:00,96.8,22.6,29.51,WSW,248,8.0,8.0,7,0.00,,,0.00,Wunderground v.1.15,2013-06-11 02:10:00,
2013-06-10 19:15:00,96.8,22.6,29.51,WSW,249,7.0,8.0,7,0.00,,,0.00,Wunderground v.1.15,2013-06-11 02:15:00,
2013-06-10 19:20:00,96.7,22.5,29.51,SW,231,8.0,11.0,7,0.00,,,0.00,Wunderground v.1.15,2013-06-11 02:20:00,
2013-06-10 19:30:00,96.3,25.4,29.51,WSW,238,9.0,9.0,8,0.00,,,0.00,Wunderground v.1.15,2013-06-11 02:30:00,
2013-06-10 19:35:00,96.1,25.3,29.52,SW,232,9.0,9.0,8,0.00,,,0.00,Wunderground v.1.15,2013-06-11 02:35:00,
2013-06-10 19:40:00,95.8,25.1,29.52,WSW,240,7.0,7.0,8,0.00,,,0.00,Wunderground v.1.15,2013-06-11 02:40:00,
2013-06-10 19:45:00,95.7,25.0,29.52,WSW,254,6.0,7.0,8,0.00,,,0.00,Wunderground v.1.15,2013-06-11 02:45:00,
2013-06-10 19:55:00,95.1,24.5,29.52,West,266,6.0,6.0,8,0.00,,,0.00,Wunderground v.1.15,2013-06-11 02:55:00,
2013-06-10 20:00:00,95.0,24.5,29.52,SW,236,6.0,6.0,8,0.00,,,0.00,Wunderground v.1.15,2013-06-11 03:00:00,
2013-06-10 20:10:00,94.5,26.9,29.52,SSW,210,5.0,5.0,9,0.00,,,0.00,Wunderground v.1.15,2013-06-11 03:10:00,
2013-06-10 20:20:00,94.1,26.6,29.53,WSW,253,5.0,5.0,9,0.00,,,0.00,Wunderground v.1.15,2013-06-11 03:20:00,
2013-06-10 20:30:00,93.8,29.0,29.53,WSW,253,5.0,5.0,10,0.00,,,0.00,Wunderground v.1.15,2013-06-11 03:30:00,
2013-06-10 20:35:00,93.6,28.8,29.53,SW,222,5.0,5.0,10,0.00,,,0.00,Wunderground v.1.15,2013-06-11 03:35:00,
2013-06-10 20:40:00,93.5,28.8,29.53,WSW,255,4.0,4.0,10,0.00,,,0.00,Wunderground v.1.15,2013-06-11 03:40:00,
2013-06-10 20:45:00,93.3,31.0,29.54,West,259,4.0,6.0,11,0.00,,,0.00,Wunderground v.1.15,2013-06-11 03:45:00,
2013-06-10 20:50:00,93.3,31.0,29.54,WSW,246,7.0,7.0,11,0.00,,,0.00,Wunderground v.1.15,2013-06-11 03:50:00,
2013-06-10 21:00:00,93.1,30.8,29.54,SW,225,6.0,6.0,11,0.00,,,0.00,Wunderground v.1.15,2013-06-11 04:00:00,
2013-06-10 21:05:00,93.0,30.7,29.54,West,269,5.0,6.0,11,0.00,,,0.00,Wunderground v.1.15,2013-06-11 04:05:00,
2013-06-10 21:10:00,92.9,30.6,29.55,West,264,5.0,5.0,11,0.00,,,0.00,Wunderground v.1.15,2013-06-11 04:10:00,
2013-06-10 21:15:00,92.7,30.5,29.55,SW,231,5.0,5.0,11,0.00,,,0.00,Wunderground v.1.15,2013-06-11 04:15:00,
2013-06-10 21:20:00,92.6,30.4,29.55,WSW,240,5.0,7.0,11,0.00,,,0.00,Wunderground v.1.15,2013-06-11 04:20:00,
2013-06-10 21:25:00,92.5,30.3,29.55,West,273,6.0,9.0,11,0.00,,,0.00,Wunderground v.1.15,2013-06-11 04:25:00,
2013-06-10 21:30:00,92.5,30.3,29.55,West,260,6.0,6.0,11,0.00,,,0.00,Wunderground v.1.15,2013-06-11 04:30:00,
2013-06-10 21:35:00,92.3,30.2,29.56,SW,225,6.0,6.0,11,0.00,,,0.00,Wunderground v.1.15,2013-06-11 04:35:00,
2013-06-10 21:40:00,92.2,30.1,29.56,SW,217,6.0,7.0,11,0.00,,,0.00,Wunderground v.1.15,2013-06-11 04:40:00,
2013-06-10 21:45:00,92.4,32.4,29.56,West,271,8.0,8.0,12,0.00,,,0.00,Wunderground v.1.15,2013-06-11 04:45:00,
2013-06-10 21:50:00,92.4,32.4,29.56,WSW,252,8.0,8.0,12,0.00,,,0.00,Wunderground v.1.15,2013-06-11 04:50:00,
2013-06-10 22:00:00,92.1,32.2,29.56,WSW,245,7.0,7.0,12,0.00,,,0.00,Wunderground v.1.15,2013-06-11 05:00:00,
2013-06-10 22:05:00,92.0,32.1,29.56,SW,233,7.0,7.0,12,0.00,,,0.00,Wunderground v.1.15,2013-06-11 05:05:00,
2013-06-10 22:10:00,91.7,31.9,29.56,West,271,6.0,8.0,12,0.00,,,0.00,Wunderground v.1.15,2013-06-11 05:10:00,
2013-06-10 22:20:00,91.6,31.8,29.56,WSW,252,7.0,7.0,12,0.00,,,0.00,Wunderground v.1.15,2013-06-11 05:20:00,
2013-06-10 22:25:00,91.5,31.7,29.56,WNW,294,8.0,8.0,12,0.00,,,0.00,Wunderground v.1.15,2013-06-11 05:25:00,
2013-06-10 22:30:00,91.5,31.7,29.56,SW,226,7.0,7.0,12,0.00,,,0.00,Wunderground v.1.15,2013-06-11 05:30:00,
2013-06-10 22:35:00,91.4,29.5,29.56,WSW,252,6.0,7.0,11,0.00,,,0.00,Wunderground v.1.15,2013-06-11 05:35:00,
2013-06-10 22:40:00,91.1,29.3,29.56,NNE,18,3.0,3.0,11,0.00,,,0.00,Wunderground v.1.15,2013-06-11 05:40:00,
2013-06-10 22:50:00,90.1,28.5,29.56,ENE,65,2.0,5.0,11,0.00,,,0.00,Wunderground v.1.15,2013-06-11 05:50:00,
2013-06-10 22:55:00,90.0,28.4,29.56,SE,129,3.0,5.0,11,0.00,,,0.00,Wunderground v.1.15,2013-06-11 05:55:00,
2013-06-10 23:00:00,89.7,25.9,29.56,NNE,25,4.0,5.0,10,0.00,,,0.00,Wunderground v.1.15,2013-06-11 06:00:00,
2013-06-10 23:05:00,89.7,28.2,29.57,NNE,19,4.0,5.0,11,0.00,,,0.00,Wunderground v.1.15,2013-06-11 06:05:00,
2013-06-10 23:10:00,89.3,27.9,29.57,ENE,78,6.0,6.0,11,0.00,,,0.00,Wunderground v.1.15,2013-06-11 06:10:00,
2013-06-10 23:20:00,88.4,27.2,29.57,NNE,18,3.0,4.0,11,0.00,,,0.00,Wunderground v.1.15,2013-06-11 06:20:00,
2013-06-10 23:25:00,88.5,27.3,29.57,NNE,22,3.0,4.0,11,0.00,,,0.00,Wunderground v.1.15,2013-06-11 06:25:00,
2013-06-10 23:35:00,88.3,24.8,29.57,NW,321,3.0,5.0,10,0.00,,,0.00,Wunderground v.1.15,2013-06-11 06:35:00,
2013-06-10 23:40:00,88.2,24.7,29.57,NW,318,1.0,1.0,10,0.00,,,0.00,Wunderground v.1.15,2013-06-11 06:40:00,
2013-06-10 23:50:00,87.0,23.8,29.57,WNW,295,3.0,4.0,10,0.00,,,0.00,Wunderground v.1.15,2013-06-11 06:50:00,
2013-06-10 23:55:00,87.7,21.8,29.57,WNW,289,3.0,4.0,9,0.00,,,0.00,Wunderground v.1.15,2013-06-11 06:55:00,